Regional Weather Roundup
Issued by NWS

Home | Current Version | Previous Version | Text Only | Print | Product List | Glossary On
Versions: 1 2 3 4 5 6 7 8 9 10 11 12 13 14 15 16 17 18 19 20 21 22 23 24 25 26 27 28 29 30 31 32 33 34 35 36 37 38 39 40 41 42 43 44 45 46 47 48 49 50
000
ASUS43 KLMK 202010
RWRKY
KENTUCKY REGIONAL WEATHER ROUNDUP
NATIONAL WEATHER SERVICE LOUISVILLE KY
400 PM EDT SAT SEP 20 2014

NOTE "FAIR" INDICATES FEW OR NO CLOUDS BELOW 12,000 FEET
WITH NO SIGNIFICANT WEATHER AND/OR OBSTRUCTIONS TO VISIBILITY.

KYZ001>023-026-027-061>063-070>075-202100-
WESTERN AND SOUTH CENTRAL KENTUCKY

CITY           SKY/WX    TMP DP  RH WIND       PRES   REMARKS
PADUCAH        MOSUNNY   89  67  47 SW8       29.99F HX  92
HENDERSON      MOSUNNY   88  64  45 SW12      29.98F
OWENSBORO      MOSUNNY   87  67  51 SW9G18    29.99F HX  90
HOPKINSVILLE   MOSUNNY   85  68  55 SW7       30.02F
BOWLING GREEN  PTSUNNY   84  63  49 SW12G17   30.03F
GLASGOW        MOSUNNY   83  64  52 SW6       30.04F
$$

KYZ024-025-028>034-038-045-046-053-202100-
NORTH CENTRAL KENTUCKY

CITY           SKY/WX    TMP DP  RH WIND       PRES   REMARKS
LOUISVILLE/SDF PTSUNNY   83  66  56 S12       30.00F
LOUISVILLE/LOU PTSUNNY   82  65  56 SW9       30.01F
FORT KNOX      PTSUNNY   83  65  54 SW10      30.01F
$$

KYZ035>037-039>044-047>052-055>060-089>105-202100-
NORTHEAST KENTUCKY

CITY           SKY/WX    TMP DP  RH WIND       PRES   REMARKS
LEXINGTON      MOSUNNY   82  64  54 SW10      30.05F
COVINGTON      PTSUNNY   80  63  55 SW15G22   29.99F
FRANKFORT      PTSUNNY   80  64  58 SW10      30.03F
$$

KYZ054-064>069-076>088-106>120-202100-
SOUTHEAST KENTUCKY

CITY           SKY/WX    TMP DP  RH WIND       PRES   REMARKS
JACKSON        MOSUNNY   79  62  56 VRB3      30.09F
LONDON         PTSUNNY   82  61  48 W6        30.09F
SOMERSET       MOSUNNY   81  59  47 W7        30.08F
MIDDLESBORO    SUNNY     82  60  46 S5        30.09F
MONTICELLO     PTCLDY    85  64  49 W8        30.09F
$$



USA.gov is the U.S. government's official web portal to all federal, state and local government web resources and services.